Observations for Trim Market St
| Time | AQI | Temp °C | Hum % | Pres Pa | CO μg/m³ | H₂S μg/m³ | NO μg/m³ | NO₂ μg/m³ | O₃ μg/m³ | SO₂ μg/m³ | PM1 μg/m³ | PM2.5 μg/m³ | PM10 μg/m³ |
|---|---|---|---|---|---|---|---|---|---|---|---|---|---|
| Saturday 11 July 2026 | |||||||||||||
| 19:13 | 1 | 27.6 | 51 | 56,556 | 0 | 0 | 0 | 10.72 | 20.25 | 0 | 6.41 | 8.57 | 11.23 |
| 19:12 | 1 | 27.6 | 51 | 56,564 | 0 | 0 | 0 | 11.61 | 8.55 | 0 | 5.7 | 7.02 | 9.74 |
| 19:11 | 1 | 27.6 | 51 | 56,575 | 0 | 0 | 0 | 10.62 | 15.57 | 0 | 5.7 | 8.05 | 10.49 |
| 19:08 | 1 | 27.6 | 51 | 56,629 | 0 | 0 | 0 | 8.23 | 10.21 | 0 | 7.84 | 10.63 | 14.93 |
| 19:07 | 1 | 27.6 | 51 | 56,645 | 0 | 0 | 0 | 10.83 | 30.73 | 0 | 7.84 | 11.14 | 17.89 |
| 19:06 | 1 | 27.6 | 51 | 56,686 | 0 | 0 | 0 | 6.33 | 11.14 | 0 | 5.7 | 10.63 | 14.19 |
| 19:05 | 1 | 27.6 | 51 | 56,767 | 0 | 0 | 0 | 9.32 | 11.09 | 0 | 7.13 | 9.59 | 14.18 |
| 19:02 | 1 | 27.6 | 51 | 56,853 | 0 | 0 | 0 | 6.1 | 9.65 | 0 | 4.99 | 7.53 | 11.22 |
| 18:59 | 1 | 27.6 | 51 | 57,001 | 0 | 2.57 | 0 | 12.59 | 32.46 | 0 | 5.7 | 8.55 | 12.69 |
| 18:55 | 1 | 27.7 | 51 | 56,873 | 0 | 3.34 | 0 | 10.99 | 16.66 | 0 | 4.28 | 6 | 9.01 |
| 18:51 | 1 | 27.6 | 51 | 56,980 | 0 | 1.72 | 0 | 11.31 | 12.8 | 0 | 5.7 | 8.05 | 11.22 |
| 18:47 | 1 | 27.6 | 51 | 57,073 | 0 | 3.1 | 0 | 9.61 | 17.96 | 0 | 4.28 | 7.54 | 9.74 |
| 18:46 | 1 | 27.6 | 51 | 57,123 | 0 | 3.9 | 0 | 9.4 | 18.64 | 0 | 5.7 | 9.58 | 14.17 |
| 18:45 | 1 | 27.6 | 51 | 57,121 | 0 | 6.57 | 0 | 11.51 | 16.5 | 0 | 5.7 | 9.07 | 11.96 |
| 18:44 | 1 | 27.6 | 51 | 57,075 | 0 | 8.9 | 0 | 12.21 | 22.09 | 0 | 4.99 | 7.54 | 10.48 |
| 18:43 | 1 | 27.7 | 51 | 56,982 | 0 | 10.09 | 0 | 17.01 | 26.57 | 0 | 5.7 | 9.09 | 14.19 |
| 18:42 | 1 | 27.7 | 51 | 56,912 | 0 | 8.65 | 0 | 18.33 | 11.47 | 0 | 4.28 | 7.04 | 9.01 |
| 18:41 | 1 | 27.7 | 50 | 56,893 | 0 | 3.98 | 0 | 14.55 | 32.2 | 0 | 4.99 | 8.08 | 11.24 |
| 18:40 | 1 | 27.7 | 50 | 56,876 | 0 | 0.77 | 0 | 10.35 | 19.06 | 0 | 5.7 | 8.08 | 10.5 |
| 18:39 | 1 | 27.7 | 50 | 56,927 | 0 | 0.77 | 0 | 7.55 | 15.62 | 0 | 4.28 | 7.06 | 9.76 |